date,time,SUV Intensity [MED/Hr],UV Index,Daily total [MED],Since Last [MED]
24/10/2023,00:02:44,-0.000,0.0,0.0,0.0
24/10/2023,00:03:44,-0.000,0.0,0.0,0.0
24/10/2023,00:04:43,0.000,0.0,0.0,0.0
24/10/2023,00:05:44,-0.001,0.0,0.0,0.0
24/10/2023,00:06:44,0.000,0.0,0.0,0.0
24/10/2023,00:07:44,0.000,0.0,0.0,0.0
24/10/2023,00:08:43,0.000,0.0,0.0,0.0
24/10/2023,00:09:43,0.000,0.0,0.0,0.0
24/10/2023,00:10:43,-0.000,0.0,0.0,0.0
24/10/2023,00:11:44,0.000,0.0,0.0,0.0
24/10/2023,00:12:43,0.000,0.0,0.0,0.0
24/10/2023,00:13:44,0.000,0.0,0.0,0.0
24/10/2023,00:14:43,0.000,0.0,0.0,0.0
24/10/2023,00:15:43,0.001,0.0,0.0,0.0
24/10/2023,00:16:43,0.000,0.0,0.0,0.0
24/10/2023,00:17:43,-0.001,0.0,0.0,0.0
24/10/2023,00:18:43,-0.001,0.0,0.0,0.0
24/10/2023,00:19:43,0.001,0.0,0.0,0.0
24/10/2023,00:20:43,0.001,0.0,0.0,0.0
24/10/2023,00:21:43,0.000,0.0,0.0,0.0
24/10/2023,00:22:43,0.000,0.0,0.0,0.0
24/10/2023,00:23:43,0.000,0.0,0.0,0.0
24/10/2023,00:24:43,0.000,0.0,0.0,0.0
24/10/2023,00:25:44,0.000,0.0,0.0,0.0
24/10/2023,00:26:43,0.001,0.0,0.0,0.0
24/10/2023,00:27:44,0.001,0.0,0.0,0.0
24/10/2023,00:28:43,0.000,0.0,0.0,0.0
24/10/2023,00:29:44,0.000,0.0,0.0,0.0
24/10/2023,00:30:43,0.001,0.0,0.0,0.0
24/10/2023,00:31:44,0.000,0.0,0.0,0.0
24/10/2023,00:32:44,0.001,0.0,0.0,0.0
24/10/2023,00:33:43,0.000,0.0,0.0,0.0
24/10/2023,00:34:44,0.000,0.0,0.0,0.0
24/10/2023,00:35:44,0.000,0.0,0.0,0.0
24/10/2023,00:36:44,0.000,0.0,0.0,0.0
24/10/2023,00:37:44,0.001,0.0,0.0,0.0
24/10/2023,00:38:43,0.000,0.0,0.0,0.0
24/10/2023,00:39:43,0.000,0.0,0.0,0.0
24/10/2023,00:40:44,0.000,0.0,0.0,0.0
24/10/2023,00:41:43,0.000,0.0,0.0,0.0
24/10/2023,00:42:44,0.000,0.0,0.0,0.0
24/10/2023,00:43:44,-0.000,0.0,0.0,0.0
24/10/2023,00:44:44,0.000,0.0,0.0,0.0
24/10/2023,00:45:43,0.001,0.0,0.0,0.0
24/10/2023,00:46:44,0.000,0.0,0.0,0.0
24/10/2023,00:47:44,0.000,0.0,0.0,0.0
24/10/2023,00:48:44,-0.001,0.0,0.0,0.0
24/10/2023,00:49:43,0.000,0.0,0.0,0.0
24/10/2023,00:50:43,-0.000,0.0,0.0,0.0
24/10/2023,00:51:43,0.000,0.0,0.0,0.0
24/10/2023,00:52:44,0.000,0.0,0.0,0.0
24/10/2023,00:53:44,-0.000,0.0,0.0,0.0
24/10/2023,00:54:44,-0.001,0.0,0.0,0.0
24/10/2023,00:55:44,-0.001,0.0,0.0,0.0
24/10/2023,00:56:43,0.001,0.0,0.0,0.0
24/10/2023,00:57:44,0.001,0.0,0.0,0.0
24/10/2023,00:58:43,0.000,0.0,0.0,0.0
24/10/2023,00:59:44,0.000,0.0,0.0,0.0
24/10/2023,01:00:43,0.001,0.0,0.0,0.0
24/10/2023,01:01:43,0.001,0.0,0.0,0.0
24/10/2023,01:02:43,0.000,0.0,0.0,0.0
24/10/2023,01:03:43,0.000,0.0,0.0,0.0
24/10/2023,01:04:44,0.000,0.0,0.0,0.0
24/10/2023,01:05:44,0.001,0.0,0.0,0.0
24/10/2023,01:06:44,-0.000,0.0,0.0,0.0
24/10/2023,01:07:44,0.001,0.0,0.0,0.0
24/10/2023,01:08:44,0.002,0.0,0.0,0.0
24/10/2023,01:09:43,0.001,0.0,0.0,0.0
24/10/2023,01:10:44,0.001,0.0,0.0,0.0
24/10/2023,01:11:43,0.000,0.0,0.0,0.0
24/10/2023,01:12:44,0.000,0.0,0.0,0.0
24/10/2023,01:13:44,0.001,0.0,0.0,0.0
24/10/2023,01:14:44,-0.000,0.0,0.0,0.0
24/10/2023,01:15:44,0.001,0.0,0.0,0.0
24/10/2023,01:16:43,0.002,0.0,0.0,0.0
24/10/2023,01:17:43,0.000,0.0,0.0,0.0
24/10/2023,01:18:43,0.001,0.0,0.0,0.0
24/10/2023,01:19:44,0.001,0.0,0.0,0.0
24/10/2023,01:20:43,0.001,0.0,0.0,0.0
24/10/2023,01:21:44,0.001,0.0,0.0,0.0
24/10/2023,01:22:44,0.000,0.0,0.0,0.0
24/10/2023,01:23:43,0.000,0.0,0.0,0.0
24/10/2023,01:24:44,0.000,0.0,0.0,0.0
24/10/2023,01:25:44,0.000,0.0,0.0,0.0
24/10/2023,01:26:44,0.000,0.0,0.0,0.0
24/10/2023,01:27:44,0.000,0.0,0.0,0.0
24/10/2023,01:28:43,0.001,0.0,0.0,0.0
24/10/2023,01:29:44,0.000,0.0,0.0,0.0
24/10/2023,01:30:44,0.000,0.0,0.0,0.0
24/10/2023,01:31:44,0.001,0.0,0.0,0.0
24/10/2023,01:32:43,0.001,0.0,0.0,0.0
24/10/2023,01:33:44,0.000,0.0,0.0,0.0
24/10/2023,01:34:44,-0.000,0.0,0.0,0.0
24/10/2023,01:35:44,0.000,0.0,0.0,0.0
24/10/2023,01:36:43,0.000,0.0,0.0,0.0
24/10/2023,01:37:43,0.000,0.0,0.0,0.0
24/10/2023,01:38:44,0.001,0.0,0.0,0.0
24/10/2023,01:39:43,-0.001,0.0,0.0,0.0
24/10/2023,01:40:44,0.000,0.0,0.0,0.0
24/10/2023,01:41:43,0.000,0.0,0.0,0.0
24/10/2023,01:42:44,0.000,0.0,0.0,0.0
24/10/2023,01:43:43,-0.000,0.0,0.0,0.0
24/10/2023,01:44:44,0.000,0.0,0.0,0.0
24/10/2023,01:45:44,0.000,0.0,0.0,0.0
24/10/2023,01:46:44,0.000,0.0,0.0,0.0
24/10/2023,01:47:43,0.000,0.0,0.0,0.0
24/10/2023,01:48:43,0.000,0.0,0.0,0.0
24/10/2023,01:49:43,0.001,0.0,0.0,0.0
24/10/2023,01:50:44,-0.000,0.0,0.0,0.0
24/10/2023,01:51:44,-0.001,0.0,0.0,0.0
24/10/2023,01:52:43,0.000,0.0,0.0,0.0
24/10/2023,01:53:44,0.000,0.0,0.0,0.0
24/10/2023,01:54:44,0.000,0.0,0.0,0.0
24/10/2023,01:55:43,-0.001,0.0,0.0,0.0
24/10/2023,01:57:13,0.001,0.0,0.0,0.0
24/10/2023,01:58:44,0.001,0.0,0.0,0.0
24/10/2023,01:59:44,0.000,0.0,0.0,0.0
24/10/2023,02:00:43,-0.000,0.0,0.0,0.0
24/10/2023,02:01:44,0.000,0.0,0.0,0.0
24/10/2023,02:02:43,0.001,0.0,0.0,0.0
24/10/2023,02:03:44,0.000,0.0,0.0,0.0
24/10/2023,02:04:43,0.000,0.0,0.0,0.0
24/10/2023,02:05:44,-0.000,0.0,0.0,0.0
24/10/2023,02:06:43,0.000,0.0,0.0,0.0
24/10/2023,02:07:44,0.001,0.0,0.0,0.0
24/10/2023,02:08:43,-0.001,0.0,0.0,0.0
24/10/2023,02:09:43,-0.001,0.0,0.0,0.0
24/10/2023,02:10:44,0.000,0.0,0.0,0.0
24/10/2023,02:11:43,0.000,0.0,0.0,0.0
24/10/2023,02:12:44,0.000,0.0,0.0,0.0
24/10/2023,02:13:44,0.001,0.0,0.0,0.0
24/10/2023,02:14:44,0.001,0.0,0.0,0.0
24/10/2023,02:15:44,0.000,0.0,0.0,0.0
24/10/2023,02:16:43,0.000,0.0,0.0,0.0
24/10/2023,02:17:44,-0.001,0.0,0.0,0.0
24/10/2023,02:18:43,0.000,0.0,0.0,0.0
24/10/2023,02:19:43,0.000,0.0,0.0,0.0
24/10/2023,02:20:44,0.000,0.0,0.0,0.0
24/10/2023,02:21:44,0.000,0.0,0.0,0.0
24/10/2023,02:22:44,0.000,0.0,0.0,0.0
24/10/2023,02:23:44,0.000,0.0,0.0,0.0
24/10/2023,02:24:44,-0.001,0.0,0.0,0.0
24/10/2023,02:25:44,-0.000,0.0,0.0,0.0
24/10/2023,02:26:44,0.000,0.0,0.0,0.0
24/10/2023,02:27:43,-0.001,0.0,0.0,0.0
24/10/2023,02:28:44,0.000,0.0,0.0,0.0
24/10/2023,02:29:44,0.000,0.0,0.0,0.0
24/10/2023,02:30:44,-0.001,0.0,0.0,0.0
24/10/2023,02:31:43,0.000,0.0,0.0,0.0
24/10/2023,02:32:44,0.000,0.0,0.0,0.0
24/10/2023,02:33:43,0.001,0.0,0.0,0.0
24/10/2023,02:34:44,0.000,0.0,0.0,0.0
24/10/2023,02:35:43,-0.000,0.0,0.0,0.0
24/10/2023,02:36:44,0.000,0.0,0.0,0.0
24/10/2023,02:37:43,0.000,0.0,0.0,0.0
24/10/2023,02:38:44,0.000,0.0,0.0,0.0
24/10/2023,02:39:44,-0.000,0.0,0.0,0.0
24/10/2023,02:40:44,0.000,0.0,0.0,0.0
24/10/2023,02:41:44,0.000,0.0,0.0,0.0
24/10/2023,02:42:43,0.000,0.0,0.0,0.0
24/10/2023,02:43:43,0.001,0.0,0.0,0.0
24/10/2023,02:44:44,0.000,0.0,0.0,0.0
24/10/2023,02:45:44,-0.001,0.0,0.0,0.0
24/10/2023,02:46:44,0.000,0.0,0.0,0.0
24/10/2023,02:47:43,0.001,0.0,0.0,0.0
24/10/2023,02:48:43,0.001,0.0,0.0,0.0
24/10/2023,02:49:44,0.000,0.0,0.0,0.0
24/10/2023,02:50:43,0.001,0.0,0.0,0.0
24/10/2023,02:51:44,0.000,0.0,0.0,0.0
24/10/2023,02:52:44,-0.000,0.0,0.0,0.0
24/10/2023,02:53:44,0.000,0.0,0.0,0.0
24/10/2023,02:54:44,-0.000,0.0,0.0,0.0
24/10/2023,02:55:44,-0.000,0.0,0.0,0.0
24/10/2023,02:56:44,0.000,0.0,0.0,0.0
24/10/2023,02:57:44,0.000,0.0,0.0,0.0
24/10/2023,02:58:44,0.000,0.0,0.0,0.0
24/10/2023,02:59:44,0.000,0.0,0.0,0.0
24/10/2023,03:00:44,0.000,0.0,0.0,0.0
24/10/2023,03:01:44,-0.000,0.0,0.0,0.0
24/10/2023,03:02:44,0.000,0.0,0.0,0.0
24/10/2023,03:03:44,0.001,0.0,0.0,0.0
24/10/2023,03:04:44,0.000,0.0,0.0,0.0
24/10/2023,03:05:44,-0.001,0.0,0.0,0.0
24/10/2023,03:06:44,0.001,0.0,0.0,0.0
24/10/2023,03:07:44,-0.000,0.0,0.0,0.0
24/10/2023,03:08:43,0.001,0.0,0.0,0.0
24/10/2023,03:09:44,0.000,0.0,0.0,0.0
24/10/2023,03:10:44,0.000,0.0,0.0,0.0
24/10/2023,03:11:44,0.001,0.0,0.0,0.0
24/10/2023,03:12:44,0.000,0.0,0.0,0.0
24/10/2023,03:13:44,0.000,0.0,0.0,0.0
24/10/2023,03:14:43,-0.001,0.0,0.0,0.0
24/10/2023,03:15:45,-0.001,0.0,0.0,0.0
24/10/2023,03:16:43,0.000,0.0,0.0,0.0
24/10/2023,03:17:44,-0.000,0.0,0.0,0.0
24/10/2023,03:18:44,0.000,0.0,0.0,0.0
24/10/2023,03:19:44,-0.001,0.0,0.0,0.0
24/10/2023,03:20:44,-0.001,0.0,0.0,0.0
24/10/2023,03:21:44,-0.000,0.0,0.0,0.0
24/10/2023,03:22:44,0.000,0.0,0.0,0.0
24/10/2023,03:23:44,0.000,0.0,0.0,0.0
24/10/2023,03:24:44,0.000,0.0,0.0,0.0
24/10/2023,03:25:44,-0.000,0.0,0.0,0.0
24/10/2023,03:26:44,0.000,0.0,0.0,0.0
24/10/2023,03:27:43,0.001,0.0,0.0,0.0
24/10/2023,03:28:44,0.000,0.0,0.0,0.0
24/10/2023,03:29:44,0.000,0.0,0.0,0.0
24/10/2023,03:30:44,0.001,0.0,0.0,0.0
24/10/2023,03:31:44,0.000,0.0,0.0,0.0
24/10/2023,03:32:44,0.000,0.0,0.0,0.0
24/10/2023,03:33:44,0.001,0.0,0.0,0.0
24/10/2023,03:34:44,0.001,0.0,0.0,0.0
24/10/2023,03:35:43,0.000,0.0,0.0,0.0
24/10/2023,03:36:44,0.001,0.0,0.0,0.0
24/10/2023,03:37:43,0.001,0.0,0.0,0.0
24/10/2023,03:38:43,0.000,0.0,0.0,0.0
24/10/2023,03:39:44,-0.000,0.0,0.0,0.0
24/10/2023,03:40:44,0.000,0.0,0.0,0.0
24/10/2023,03:41:44,0.001,0.0,0.0,0.0
24/10/2023,03:42:44,0.001,0.0,0.0,0.0
24/10/2023,03:43:43,0.000,0.0,0.0,0.0
24/10/2023,03:44:44,0.000,0.0,0.0,0.0
24/10/2023,03:45:43,0.000,0.0,0.0,0.0
24/10/2023,03:46:44,-0.001,0.0,0.0,0.0
24/10/2023,03:47:47,0.000,0.0,0.0,0.0
24/10/2023,03:48:44,0.000,0.0,0.0,0.0
24/10/2023,03:49:44,0.001,0.0,0.0,0.0
24/10/2023,03:50:44,0.001,0.0,0.0,0.0
24/10/2023,03:51:44,0.000,0.0,0.0,0.0
24/10/2023,03:52:44,0.002,0.0,0.0,0.0
24/10/2023,03:53:44,0.000,0.0,0.0,0.0
24/10/2023,03:54:44,0.001,0.0,0.0,0.0
24/10/2023,03:55:44,-0.000,0.0,0.0,0.0
24/10/2023,03:56:44,0.000,0.0,0.0,0.0
24/10/2023,03:57:43,0.001,0.0,0.0,0.0
24/10/2023,03:58:45,0.000,0.0,0.0,0.0
24/10/2023,03:59:45,0.000,0.0,0.0,0.0
24/10/2023,04:00:44,0.002,0.0,0.0,0.0
24/10/2023,04:01:43,0.001,0.0,0.0,0.0
24/10/2023,04:02:43,0.000,0.0,0.0,0.0
24/10/2023,04:03:44,0.001,0.0,0.0,0.0
24/10/2023,04:04:44,-0.000,0.0,0.0,0.0
24/10/2023,04:05:44,0.001,0.0,0.0,0.0
24/10/2023,04:06:44,0.000,0.0,0.0,0.0
24/10/2023,04:07:44,0.000,0.0,0.0,0.0
24/10/2023,04:08:44,0.000,0.0,0.0,0.0
24/10/2023,04:09:44,0.000,0.0,0.0,0.0
24/10/2023,04:10:44,0.000,0.0,0.0,0.0
24/10/2023,04:11:44,0.000,0.0,0.0,0.0
24/10/2023,04:12:44,0.000,0.0,0.0,0.0
24/10/2023,04:13:44,0.001,0.0,0.0,0.0
24/10/2023,04:14:44,0.001,0.0,0.0,0.0
24/10/2023,04:15:44,0.001,0.0,0.0,0.0
24/10/2023,04:16:44,-0.001,0.0,0.0,0.0
24/10/2023,04:17:44,0.000,0.0,0.0,0.0
24/10/2023,04:18:44,0.000,0.0,0.0,0.0
24/10/2023,04:19:44,0.001,0.0,0.0,0.0
24/10/2023,04:20:44,0.001,0.0,0.0,0.0
24/10/2023,04:21:44,0.000,0.0,0.0,0.0
24/10/2023,04:22:44,0.001,0.0,0.0,0.0
24/10/2023,04:23:44,0.001,0.0,0.0,0.0
24/10/2023,04:24:44,0.000,0.0,0.0,0.0
24/10/2023,04:25:44,0.000,0.0,0.0,0.0
24/10/2023,04:26:44,0.001,0.0,0.0,0.0
24/10/2023,04:27:44,0.000,0.0,0.0,0.0
24/10/2023,04:28:44,0.001,0.0,0.0,0.0
24/10/2023,04:29:44,0.001,0.0,0.0,0.0
24/10/2023,04:30:44,0.000,0.0,0.0,0.0
24/10/2023,04:31:44,0.000,0.0,0.0,0.0
24/10/2023,04:32:44,0.000,0.0,0.0,0.0
24/10/2023,04:33:44,0.002,0.0,0.0,0.0
24/10/2023,04:34:44,-0.000,0.0,0.0,0.0
24/10/2023,04:35:44,0.001,0.0,0.0,0.0
24/10/2023,04:36:44,-0.000,0.0,0.0,0.0
24/10/2023,04:37:44,0.001,0.0,0.0,0.0
24/10/2023,04:38:44,0.001,0.0,0.0,0.0
24/10/2023,04:39:43,0.000,0.0,0.0,0.0
24/10/2023,04:40:44,0.001,0.0,0.0,0.0
24/10/2023,04:41:44,0.000,0.0,0.0,0.0
24/10/2023,04:42:44,0.001,0.0,0.0,0.0
24/10/2023,04:43:44,0.000,0.0,0.0,0.0
24/10/2023,04:44:44,0.001,0.0,0.0,0.0
24/10/2023,04:45:44,0.000,0.0,0.0,0.0
24/10/2023,04:46:43,-0.000,0.0,0.0,0.0
24/10/2023,04:47:44,0.001,0.0,0.0,0.0
24/10/2023,04:48:44,0.000,0.0,0.0,0.0
24/10/2023,04:49:44,0.001,0.0,0.0,0.0
24/10/2023,04:50:44,0.000,0.0,0.0,0.0
24/10/2023,04:51:44,-0.000,0.0,0.0,0.0
24/10/2023,04:52:44,0.001,0.0,0.0,0.0
24/10/2023,04:53:43,0.001,0.0,0.0,0.0
24/10/2023,04:54:43,-0.001,0.0,0.0,0.0
24/10/2023,04:55:44,-0.000,0.0,0.0,0.0
24/10/2023,04:56:44,0.001,0.0,0.0,0.0
24/10/2023,04:57:44,0.001,0.0,0.0,0.0
24/10/2023,04:58:44,0.001,0.0,0.0,0.0
24/10/2023,04:59:44,0.001,0.0,0.0,0.0
24/10/2023,05:00:44,0.001,0.0,0.0,0.0
24/10/2023,05:01:44,0.001,0.0,0.0,0.0
24/10/2023,05:02:44,0.001,0.0,0.0,0.0
24/10/2023,05:03:44,-0.000,0.0,0.0,0.0
24/10/2023,05:04:44,0.001,0.0,0.0,0.0
24/10/2023,05:05:44,0.001,0.0,0.0,0.0
24/10/2023,05:06:44,0.000,0.0,0.0,0.0
24/10/2023,05:07:44,0.002,0.0,0.0,0.0
24/10/2023,05:08:44,0.001,0.0,0.0,0.0
24/10/2023,05:09:44,0.001,0.0,0.0,0.0
24/10/2023,05:10:44,0.001,0.0,0.0,0.0
24/10/2023,05:11:43,0.001,0.0,0.0,0.0
24/10/2023,05:12:44,0.001,0.0,0.0,0.0
24/10/2023,05:13:44,0.001,0.0,0.0,0.0
24/10/2023,05:14:44,0.000,0.0,0.0,0.0
24/10/2023,05:15:43,-0.000,0.0,0.0,0.0
24/10/2023,05:16:44,-0.000,0.0,0.0,0.0
24/10/2023,05:17:44,-0.000,0.0,0.0,0.0
24/10/2023,05:18:44,-0.001,0.0,0.0,0.0
24/10/2023,05:19:44,0.000,0.0,0.0,0.0
24/10/2023,05:20:44,0.001,0.0,0.0,0.0
24/10/2023,05:21:44,0.000,0.0,0.0,0.0
24/10/2023,05:22:44,0.000,0.0,0.0,0.0
24/10/2023,05:23:44,0.001,0.0,0.0,0.0
24/10/2023,05:24:44,0.001,0.0,0.0,0.0
24/10/2023,05:25:44,0.000,0.0,0.0,0.0
24/10/2023,05:26:44,0.000,0.0,0.0,0.0
24/10/2023,05:27:44,0.001,0.0,0.0,0.0
24/10/2023,05:28:44,0.000,0.0,0.0,0.0
24/10/2023,05:29:44,0.000,0.0,0.0,0.0
24/10/2023,05:30:44,0.001,0.0,0.0,0.0
24/10/2023,05:31:44,0.001,0.0,0.0,0.0
24/10/2023,05:32:44,0.000,0.0,0.0,0.0
24/10/2023,05:33:44,0.001,0.0,0.0,0.0
24/10/2023,05:34:44,0.001,0.0,0.0,0.0
24/10/2023,05:35:44,0.001,0.0,0.0,0.0
24/10/2023,05:36:44,0.000,0.0,0.0,0.0
24/10/2023,05:37:44,0.001,0.0,0.0,0.0
24/10/2023,05:38:44,0.001,0.0,0.0,0.0
24/10/2023,05:39:44,0.001,0.0,0.0,0.0
24/10/2023,05:40:44,0.001,0.0,0.0,0.0
24/10/2023,05:41:44,0.001,0.0,0.0,0.0
24/10/2023,05:42:44,0.000,0.0,0.0,0.0
24/10/2023,05:43:44,0.000,0.0,0.0,0.0
24/10/2023,05:44:44,0.000,0.0,0.0,0.0
24/10/2023,05:45:44,0.001,0.0,0.0,0.0
24/10/2023,05:46:44,0.001,0.0,0.0,0.0
24/10/2023,05:47:44,0.001,0.0,0.0,0.0
24/10/2023,05:48:44,0.000,0.0,0.0,0.0
24/10/2023,05:49:44,-0.001,0.0,0.0,0.0
24/10/2023,05:50:44,0.002,0.0,0.0,0.0
24/10/2023,05:51:44,0.000,0.0,0.0,0.0
24/10/2023,05:52:44,0.000,0.0,0.0,0.0
24/10/2023,05:53:44,0.001,0.0,0.0,0.0
24/10/2023,05:54:44,0.001,0.0,0.0,0.0
24/10/2023,05:55:44,0.000,0.0,0.0,0.0
24/10/2023,05:56:44,0.002,0.0,0.0,0.0
24/10/2023,05:57:44,-0.000,0.0,0.0,0.0
24/10/2023,05:58:44,0.001,0.0,0.0,0.0
24/10/2023,05:59:44,0.000,0.0,0.0,0.0
24/10/2023,06:00:44,0.001,0.0,0.0,0.0
24/10/2023,06:01:45,-0.000,0.0,0.0,0.0
24/10/2023,06:02:44,-0.000,0.0,0.0,0.0
24/10/2023,06:03:44,0.001,0.0,0.0,0.0
24/10/2023,06:04:44,0.001,0.0,0.0,0.0
24/10/2023,06:05:44,0.000,0.0,0.0,0.0
24/10/2023,06:06:44,0.001,0.0,0.0,0.0
24/10/2023,06:07:44,0.001,0.0,0.0,0.0
24/10/2023,06:08:44,-0.000,0.0,0.0,0.0
24/10/2023,06:09:44,0.001,0.0,0.0,0.0
24/10/2023,06:10:44,0.000,0.0,0.0,0.0
24/10/2023,06:11:44,0.001,0.0,0.0,0.0
24/10/2023,06:12:44,-0.001,0.0,0.0,0.0
24/10/2023,06:13:45,-0.000,0.0,0.0,0.0
24/10/2023,06:14:45,0.001,0.0,0.0,0.0
24/10/2023,06:15:44,0.001,0.0,0.0,0.0
24/10/2023,06:16:44,0.001,0.0,0.0,0.0
24/10/2023,06:17:44,0.001,0.0,0.0,0.0
24/10/2023,06:18:44,0.001,0.0,0.0,0.0
24/10/2023,06:19:44,0.001,0.0,0.0,0.0
24/10/2023,06:20:44,0.002,0.0,0.0,0.0
24/10/2023,06:21:44,0.000,0.0,0.0,0.0
24/10/2023,06:22:44,0.001,0.0,0.0,0.0
24/10/2023,06:23:44,0.001,0.0,0.0,0.0
24/10/2023,06:24:44,0.001,0.0,0.0,0.0
24/10/2023,06:25:44,0.001,0.0,0.0,0.0
24/10/2023,06:26:44,0.001,0.0,0.0,0.0
24/10/2023,06:27:44,0.001,0.0,0.0,0.0
24/10/2023,06:28:44,0.000,0.0,0.0,0.0
24/10/2023,06:29:44,0.000,0.0,0.0,0.0
24/10/2023,06:30:44,0.001,0.0,0.0,0.0
24/10/2023,06:31:44,0.002,0.0,0.0,0.0
24/10/2023,06:32:44,0.001,0.0,0.0,0.0
24/10/2023,06:33:44,0.001,0.0,0.0,0.0
24/10/2023,06:34:44,0.001,0.0,0.0,0.0
24/10/2023,06:35:44,0.001,0.0,0.0,0.0
24/10/2023,06:36:44,0.001,0.0,0.0,0.0
24/10/2023,06:37:45,0.001,0.0,0.0,0.0
24/10/2023,06:38:45,0.001,0.0,0.0,0.0
24/10/2023,06:39:44,0.001,0.0,0.0,0.0
24/10/2023,06:40:44,-0.001,0.0,0.0,0.0
24/10/2023,06:41:44,0.000,0.0,0.0,0.0
24/10/2023,06:42:44,0.001,0.0,0.0,0.0
24/10/2023,06:43:44,0.001,0.0,0.0,0.0
24/10/2023,06:44:44,0.001,0.0,0.0,0.0
24/10/2023,06:45:44,0.002,0.0,0.0,0.0
24/10/2023,06:46:44,0.001,0.0,0.0,0.0
24/10/2023,06:47:44,0.001,0.0,0.0,0.0
24/10/2023,06:48:44,0.001,0.0,0.0,0.0
24/10/2023,06:49:44,0.002,0.0,0.0,0.0
24/10/2023,06:50:44,0.001,0.0,0.0,0.0
24/10/2023,06:51:44,0.002,0.0,0.0,0.0
24/10/2023,06:52:44,0.002,0.0,0.0,0.0
24/10/2023,06:53:44,0.002,0.0,0.0,0.0
24/10/2023,06:54:44,0.002,0.0,0.0,0.0
24/10/2023,06:55:44,0.002,0.0,0.0,0.0
24/10/2023,06:56:44,0.002,0.0,0.0,0.0
24/10/2023,06:57:44,0.002,0.0,0.0,0.0
24/10/2023,06:58:44,0.003,0.0,0.0,0.0
24/10/2023,06:59:44,0.003,0.0,0.0,0.0
24/10/2023,07:00:44,0.003,0.0,0.0,0.0
24/10/2023,07:01:44,0.003,0.0,0.0,0.0
24/10/2023,07:02:44,0.006,0.0,0.0,0.0
24/10/2023,07:03:44,0.004,0.0,0.0,0.0
24/10/2023,07:04:44,0.004,0.0,0.0,0.0
24/10/2023,07:05:44,0.004,0.0,0.0,0.0
24/10/2023,07:06:44,0.003,0.0,0.0,0.0
24/10/2023,07:07:44,0.003,0.0,0.0,0.0
24/10/2023,07:08:44,0.005,0.0,0.0,0.0
24/10/2023,07:09:44,0.004,0.0,0.0,0.0
24/10/2023,07:10:44,0.004,0.0,0.0,0.0
24/10/2023,07:11:44,0.004,0.0,0.0,0.0
24/10/2023,07:12:45,0.004,0.0,0.0,0.0
24/10/2023,07:13:44,0.004,0.0,0.0,0.0
24/10/2023,07:14:44,0.005,0.0,0.0,0.0
24/10/2023,07:15:44,0.003,0.0,0.0,0.0
24/10/2023,07:16:44,0.004,0.0,0.0,0.0
24/10/2023,07:17:44,0.005,0.0,0.0,0.0
24/10/2023,07:18:44,0.004,0.0,0.0,0.0
24/10/2023,07:19:44,0.004,0.0,0.0,0.0
24/10/2023,07:20:44,0.004,0.0,0.0,0.0
24/10/2023,07:21:44,0.003,0.0,0.0,0.0
24/10/2023,07:22:44,0.004,0.0,0.0,0.0
24/10/2023,07:23:44,0.003,0.0,0.0,0.0
24/10/2023,07:24:45,0.004,0.0,0.0,0.0
24/10/2023,07:25:44,0.004,0.0,0.0,0.0
24/10/2023,07:26:44,0.005,0.0,0.0,0.0
24/10/2023,07:27:44,0.004,0.0,0.0,0.0
24/10/2023,07:28:44,0.003,0.0,0.0,0.0
24/10/2023,07:29:44,0.005,0.0,0.0,0.0
24/10/2023,07:30:44,0.005,0.0,0.0,0.0
24/10/2023,07:31:44,0.005,0.0,0.0,0.0
24/10/2023,07:32:44,0.006,0.0,0.0,0.0
24/10/2023,07:33:44,0.005,0.0,0.0,0.0
24/10/2023,07:34:45,0.005,0.0,0.0,0.0
24/10/2023,07:35:44,0.005,0.0,0.0,0.0
24/10/2023,07:36:44,0.005,0.0,0.0,0.0
24/10/2023,07:37:44,0.006,0.0,0.0,0.0
24/10/2023,07:38:44,0.008,0.0,0.0,0.0
24/10/2023,07:39:44,0.007,0.0,0.0,0.0
24/10/2023,07:40:44,0.008,0.0,0.0,0.0
24/10/2023,07:41:44,0.008,0.0,0.001,0.001
24/10/2023,07:42:44,0.009,0.0,0.001,0.0
24/10/2023,07:43:44,0.009,0.0,0.001,0.0
24/10/2023,07:44:44,0.009,0.0,0.001,0.0
24/10/2023,07:45:44,0.011,0.0,0.001,0.0
24/10/2023,07:46:44,0.011,0.0,0.001,0.0
24/10/2023,07:47:44,0.011,0.0,0.001,0.0
24/10/2023,07:48:44,0.009,0.0,0.002,0.001
24/10/2023,07:49:44,0.008,0.0,0.002,0.0
24/10/2023,07:50:44,0.008,0.0,0.002,0.0
24/10/2023,07:51:44,0.007,0.0,0.002,0.0
24/10/2023,07:52:44,0.007,0.0,0.002,0.0
24/10/2023,07:53:44,0.008,0.0,0.002,0.0
24/10/2023,07:54:44,0.008,0.0,0.002,0.0
24/10/2023,07:55:44,0.007,0.0,0.003,0.001
24/10/2023,07:56:44,0.007,0.0,0.003,0.0
24/10/2023,07:57:44,0.008,0.0,0.003,0.0
24/10/2023,07:58:44,0.008,0.0,0.003,0.0
24/10/2023,07:59:44,0.008,0.0,0.003,0.0
24/10/2023,08:00:44,0.008,0.0,0.003,0.0
24/10/2023,08:01:44,0.007,0.0,0.003,0.0
24/10/2023,08:02:44,0.009,0.0,0.003,0.0
24/10/2023,08:03:45,0.010,0.0,0.004,0.001
24/10/2023,08:04:44,0.011,0.0,0.004,0.0
24/10/2023,08:05:44,0.011,0.0,0.004,0.0
24/10/2023,08:06:44,0.012,0.0,0.004,0.0
24/10/2023,08:07:45,0.013,0.0,0.004,0.0
24/10/2023,08:08:44,0.014,0.0,0.005,0.001
24/10/2023,08:09:45,0.015,0.0,0.005,0.0
24/10/2023,08:10:44,0.016,0.0,0.005,0.0
24/10/2023,08:11:44,0.018,0.0,0.005,0.0
24/10/2023,08:12:44,0.019,0.0,0.006,0.001
24/10/2023,08:13:44,0.020,0.0,0.006,0.0
24/10/2023,08:14:44,0.019,0.0,0.006,0.0
24/10/2023,08:15:44,0.021,0.0,0.007,0.001
24/10/2023,08:16:44,0.022,0.0,0.007,0.0
24/10/2023,08:17:44,0.023,0.0,0.007,0.0
24/10/2023,08:18:45,0.025,0.0,0.008,0.001
24/10/2023,08:19:44,0.027,0.0,0.008,0.0
24/10/2023,08:20:44,0.030,0.0,0.009,0.001
24/10/2023,08:21:44,0.030,0.0,0.009,0.0
24/10/2023,08:22:44,0.032,0.0,0.01,0.001
24/10/2023,08:23:45,0.034,0.0,0.01,0.0
24/10/2023,08:24:44,0.038,0.0,0.011,0.001
24/10/2023,08:25:45,0.037,0.0,0.011,0.0
24/10/2023,08:26:44,0.037,0.0,0.012,0.001
24/10/2023,08:27:44,0.038,0.0,0.013,0.001
24/10/2023,08:28:44,0.035,0.0,0.013,0.0
24/10/2023,08:29:44,0.036,0.0,0.014,0.001
24/10/2023,08:30:44,0.037,0.0,0.015,0.001
24/10/2023,08:31:44,0.035,0.0,0.015,0.0
24/10/2023,08:32:44,0.030,0.0,0.016,0.001
24/10/2023,08:33:44,0.025,0.0,0.016,0.0
24/10/2023,08:34:44,0.025,0.0,0.017,0.001
24/10/2023,08:35:44,0.027,0.0,0.017,0.0
24/10/2023,08:36:45,0.029,0.0,0.017,0.0
24/10/2023,08:37:44,0.030,0.0,0.018,0.001
24/10/2023,08:38:44,0.033,0.0,0.018,0.0
24/10/2023,08:39:45,0.033,0.0,0.019,0.001
24/10/2023,08:40:44,0.033,0.0,0.02,0.001
24/10/2023,08:41:45,0.036,0.0,0.02,0.0
24/10/2023,08:42:44,0.038,0.0,0.021,0.001
24/10/2023,08:43:44,0.041,0.0,0.021,0.0
24/10/2023,08:44:45,0.042,0.0,0.022,0.001
24/10/2023,08:45:44,0.041,0.0,0.023,0.001
24/10/2023,08:46:44,0.039,0.0,0.024,0.001
24/10/2023,08:47:44,0.042,0.0,0.024,0.0
24/10/2023,08:48:44,0.045,0.0,0.025,0.001
24/10/2023,08:49:44,0.045,0.0,0.026,0.001
24/10/2023,08:50:44,0.043,0.0,0.026,0.0
24/10/2023,08:51:44,0.044,0.0,0.027,0.001
24/10/2023,08:52:45,0.046,0.0,0.028,0.001
24/10/2023,08:53:44,0.051,0.0,0.029,0.001
24/10/2023,08:54:44,0.060,0.0,0.03,0.001
24/10/2023,08:55:44,0.066,0.0,0.031,0.001
24/10/2023,08:56:45,0.066,0.0,0.032,0.001
24/10/2023,08:57:44,0.066,0.0,0.033,0.001
24/10/2023,08:58:44,0.069,0.0,0.034,0.001
24/10/2023,08:59:44,0.077,0.0,0.035,0.001
24/10/2023,09:00:45,0.079,0.0,0.037,0.002
24/10/2023,09:01:44,0.077,0.0,0.038,0.001
24/10/2023,09:02:44,0.076,0.0,0.039,0.001
24/10/2023,09:03:45,0.083,0.0,0.04,0.001
24/10/2023,09:04:44,0.093,0.0,0.042,0.002
24/10/2023,09:05:45,0.101,0.0,0.044,0.002
24/10/2023,09:06:44,0.107,0.0,0.045,0.001
24/10/2023,09:07:44,0.113,0.0,0.047,0.002
24/10/2023,09:08:45,0.117,0.0,0.049,0.002
24/10/2023,09:09:44,0.124,0.0,0.051,0.002
24/10/2023,09:10:44,0.138,0.0,0.053,0.002
24/10/2023,09:11:44,0.152,0.0,0.056,0.003
24/10/2023,09:12:44,0.162,0.0,0.058,0.002
24/10/2023,09:13:44,0.170,0.0,0.061,0.003
24/10/2023,09:14:44,0.174,0.0,0.064,0.003
24/10/2023,09:15:45,0.181,0.0,0.067,0.003
24/10/2023,09:16:44,0.185,0.0,0.07,0.003
24/10/2023,09:17:45,0.198,0.0,0.073,0.003
24/10/2023,09:18:44,0.206,0.0,0.076,0.003
24/10/2023,09:19:45,0.200,0.0,0.08,0.004
24/10/2023,09:20:44,0.202,0.0,0.083,0.003
24/10/2023,09:21:44,0.203,0.0,0.087,0.004
24/10/2023,09:22:44,0.218,1.0,0.09,0.003
24/10/2023,09:23:44,0.212,0.0,0.094,0.004
24/10/2023,09:24:45,0.214,0.0,0.097,0.003
24/10/2023,09:25:44,0.223,1.0,0.101,0.004
24/10/2023,09:26:45,0.210,0.0,0.105,0.004
24/10/2023,09:27:44,0.214,0.0,0.108,0.003
24/10/2023,09:28:45,0.209,0.0,0.112,0.004
24/10/2023,09:29:44,0.207,0.0,0.115,0.003
24/10/2023,09:30:44,0.209,0.0,0.119,0.004
24/10/2023,09:31:44,0.205,0.0,0.122,0.003
24/10/2023,09:32:45,0.207,0.0,0.126,0.004
24/10/2023,09:33:45,0.219,1.0,0.129,0.003
24/10/2023,09:34:44,0.221,1.0,0.133,0.004
24/10/2023,09:35:44,0.227,1.0,0.137,0.004
24/10/2023,09:36:44,0.247,1.0,0.141,0.004
24/10/2023,09:37:44,0.245,1.0,0.145,0.004
24/10/2023,09:38:44,0.253,1.0,0.149,0.004
24/10/2023,09:39:45,0.257,1.0,0.153,0.004
24/10/2023,09:40:44,0.263,1.0,0.157,0.004
24/10/2023,09:41:45,0.240,1.0,0.162,0.005
24/10/2023,09:42:44,0.262,1.0,0.166,0.004
24/10/2023,09:43:45,0.262,1.0,0.17,0.004
24/10/2023,09:44:44,0.271,1.0,0.175,0.005
24/10/2023,09:45:45,0.272,1.0,0.179,0.004
24/10/2023,09:46:44,0.274,1.0,0.184,0.005
24/10/2023,09:47:45,0.267,1.0,0.188,0.004
24/10/2023,09:48:44,0.275,1.0,0.193,0.005
24/10/2023,09:49:44,0.276,1.0,0.197,0.004
24/10/2023,09:50:45,0.276,1.0,0.202,0.005
24/10/2023,09:51:45,0.276,1.0,0.206,0.004
24/10/2023,09:52:44,0.276,1.0,0.211,0.005
24/10/2023,09:53:44,0.277,1.0,0.215,0.004
24/10/2023,09:54:45,0.272,1.0,0.22,0.005
24/10/2023,09:55:44,0.276,1.0,0.225,0.005
24/10/2023,09:56:44,0.260,1.0,0.229,0.004
24/10/2023,09:57:45,0.252,1.0,0.234,0.005
24/10/2023,09:58:44,0.251,1.0,0.238,0.004
24/10/2023,09:59:44,0.252,1.0,0.242,0.004
24/10/2023,10:00:44,0.295,1.0,0.246,0.004
24/10/2023,10:01:44,0.284,1.0,0.251,0.005
24/10/2023,10:02:44,0.259,1.0,0.255,0.004
24/10/2023,10:03:45,0.279,1.0,0.26,0.005
24/10/2023,10:04:44,0.257,1.0,0.264,0.004
24/10/2023,10:05:45,0.257,1.0,0.269,0.005
24/10/2023,10:06:45,0.253,1.0,0.273,0.004
24/10/2023,10:07:44,0.248,1.0,0.277,0.004
24/10/2023,10:08:45,0.247,1.0,0.281,0.004
24/10/2023,10:09:44,0.248,1.0,0.285,0.004
24/10/2023,10:10:45,0.250,1.0,0.29,0.005
24/10/2023,10:11:44,0.252,1.0,0.294,0.004
24/10/2023,10:12:45,0.254,1.0,0.298,0.004
24/10/2023,10:13:44,0.257,1.0,0.302,0.004
24/10/2023,10:14:45,0.258,1.0,0.307,0.005
24/10/2023,10:15:44,0.267,1.0,0.311,0.004